Location: Melita
(38.4566°N, 122.6369°W)
Time: 22:03:45
(UTC+00:00)

ADEOS Rocket - Pass Details

Date: 24 January 2020
Orbit: 859 x 1306 km, 98.7° (Epoch: 27 February)

Event Time Altitude Azimuth Distance (km) Brightness Sun altitude
Rises 13:43:43 0° 145° (SE) 3,427 6.5 -19.2°
Reaches altitude 10° 13:46:10 10° 139° (SE) 2,489 5.9 -18.8°
Maximum altitude 13:51:16 42° 69° (ENE) 1,226 4.0 -17.8°
Drops below altitude 10° 13:56:33 10° 1° (N) 2,586 5.1 -16.8°
Sets 13:59:08 0° 354° (N) 3,577 5.8 -16.3°
